Location: Observatoire
(46.1952°N, 5.3391°E)
Time: 07:00:56
(UTC+01:00)

A-11 Canister half - Pass Details

Date: 26 February 2026
Orbit: 1524 x 1683 km, 47.3° (Epoch: 13 March)

Event Time Altitude Azimuth Distance (km) Brightness Sun altitude
Rises 13:05:07 0° 196° (SSW) 4,799 12.6 35.1°
Reaches altitude 10° 13:08:51 10° 185° (S) 3,791 12.5 35.1°
Maximum altitude 13:16:24 27° 132° (SE) 2,649 11.0 34.9°
Drops below altitude 10° 13:23:47 10° 80° (E) 3,717 10.9 34.7°
Sets 13:27:23 0° 69° (ENE) 4,690 11.3 34.6°
